Cheyenne, WY

2:58 PM MDT on June 22, 2017 (GMT -0600)
Cheyenne

Weather History for KCYS - January, 2014

Change the Weather History Date:

Thursday, January 2, 2014

  Actual Average Record
Temperature  
Mean Temperature 24 °F 28 °F  
Max Temperature 38 °F 39 °F 64 °F (1997)
Min Temperature 10 °F 18 °F -19 °F (1911)
Degree Days  
Heating Degree Days 41 36  
Month to date heating degree days 81 73  
Since 1 July heating degree days 2981 2976  
Cooling Degree Days 0 0  
Month to date cooling degree days 0 0  
Year to date cooling degree days 0 0  
Moisture  
Dew Point 14 °F    
Average Humidity 65    
Maximum Humidity 92    
Minimum Humidity 37    
Precipitation  
Precipitation 0.00 in 0.01 in 0.48 in (1949)
Month to date precipitation 0.13 0.02  
Year to date precipitation 0.13 0.02  
Snow  
Snow 0.00 in 0.20 in 5.00 in (1949)
Month to date snowfall 1.8 0.4  
Since 1 July snowfall 27.5 23.1  
Snow Depth 2.00 in    
Sea Level Pressure  
Sea Level Pressure 30.22 in    
Wind  
Wind Speed 10 mph (WSW)    
Max Wind Speed 25 mph    
Max Gust Speed 32 mph    
Visibility 8 miles    
Events Fog    
T = Trace of Precipitation, MM = Missing Value Source: NWS Daily Summary

Daily Weather History Graph

Daily Weather History Graph

Search for Another Location

Airport or City:

Trip Planner

Search our weather history database for the weather conditions in past years. The results will help you decide how hot, cold, wet, or windy it might be!

Date:

Astronomy

Jan. 02, 2014 Rise Set
Actual Time 7:24 AM MST 4:42 PM MST
Civil Twilight 6:53 AM MST 5:13 PM MST
Nautical Twilight 6:19 AM MST 5:47 PM MST
Astronomical Twilight 5:45 AM MST 6:21 PM MST
Moon 8:07 AM MST (1/2) 6:43 PM MST (1/2)
Length of Visible Light 10h 19m
Length of Day
9h 17m
Waxing Crescent, 3% of the Moon is Illuminated
Jan 2
Waxing Crescent
Jan 7
First Quarter
Jan 15
Full
Jan 23
Last Quarter
Jan 30
New

Hourly Weather History & Observations

Time (MST) Temp. Windchill Dew Point Humidity Pressure Visibility Wind Dir Wind Speed Gust Speed Precip Events Conditions
12:44 AM 12.2 °F 0.7 °F 8.6 °F 85% 30.17 in 9.0 mi West 8.1 mph - N/A   Scattered Clouds
12:53 AM 12.0 °F 2.7 °F 10.0 °F 92% 30.35 in 4.0 mi West 5.8 mph - N/A   Mostly Cloudy
12:55 AM 12.2 °F 2.9 °F 10.4 °F 92% 30.17 in 1.5 mi West 5.8 mph - N/A   Mostly Cloudy
1:01 AM 14.0 °F 6.5 °F 12.2 °F 93% 30.17 in 0.2 mi West 4.6 mph - N/A Fog Light Freezing Fog
1:49 AM 12.2 °F 4.3 °F 10.4 °F 92% 30.16 in 0.8 mi West 4.6 mph - N/A   Mist
1:53 AM 12.0 °F 4.1 °F 10.0 °F 92% 30.37 in 0.8 mi West 4.6 mph - N/A   Mist
2:03 AM 12.2 °F 4.3 °F 10.4 °F 92% 30.16 in 1.8 mi Variable 4.6 mph - N/A   Mostly Cloudy
2:05 AM 12.2 °F 4.3 °F 10.4 °F 92% 30.16 in 2.5 mi Variable 4.6 mph - N/A   Scattered Clouds
2:12 AM 12.2 °F 2.9 °F 10.4 °F 92% 30.16 in 7.0 mi West 5.8 mph - N/A   Partly Cloudy
2:53 AM 10.9 °F 1.4 °F 8.1 °F 88% 30.38 in 10.0 mi NW 5.8 mph - N/A   Clear
3:53 AM 12.0 °F 4.1 °F 8.1 °F 84% 30.36 in 10.0 mi Variable 4.6 mph - N/A   Clear
4:53 AM 17.1 °F 10.0 °F 10.9 °F 77% 30.34 in 10.0 mi NW 4.6 mph - N/A   Clear
5:53 AM 15.1 °F 5.2 °F 9.0 °F 77% 30.35 in 10.0 mi East 6.9 mph - N/A   Clear
6:53 AM 27.0 °F 20.5 °F 10.9 °F 51% 30.31 in 10.0 mi WSW 5.8 mph - N/A   Clear
7:53 AM 30.9 °F 20.7 °F 10.0 °F 42% 30.29 in 10.0 mi West 13.8 mph 24.2 mph N/A   Clear
8:00 AM 30.2 °F 17.4 °F 10.4 °F 44% 30.17 in 10.0 mi West 20.7 mph 27.6 mph N/A   Clear
8:53 AM 30.9 °F 24.3 °F 10.9 °F 43% 30.32 in 10.0 mi SE 6.9 mph - N/A   Clear
9:53 AM 36.0 °F 30.3 °F 12.0 °F 37% 30.32 in 10.0 mi West 6.9 mph - N/A   Clear
10:53 AM 37.9 °F 30.5 °F 14.0 °F 38% 30.31 in 10.0 mi West 11.5 mph - N/A   Clear
11:19 AM 32.0 °F 21.6 °F 17.6 °F 55% 30.17 in 10.0 mi SSW 15.0 mph - N/A   Clear
11:53 AM 32.0 °F 22.5 °F 19.0 °F 59% 30.31 in 10.0 mi SSW 12.7 mph - N/A   Clear
12:53 PM 32.0 °F 21.2 °F 21.9 °F 66% 30.29 in 10.0 mi SW 16.1 mph - N/A   Clear
1:53 PM 33.1 °F 23.9 °F 21.9 °F 64% 30.27 in 10.0 mi South 12.7 mph - N/A   Clear
2:53 PM 33.1 °F 23.4 °F 19.9 °F 59% 30.27 in 10.0 mi SW 13.8 mph - N/A   Clear
3:53 PM 33.1 °F 24.9 °F 19.0 °F 56% 30.25 in 10.0 mi SSW 10.4 mph - N/A   Partly Cloudy
4:53 PM 32.0 °F 23.6 °F 19.0 °F 59% 30.22 in 10.0 mi SSW 10.4 mph - N/A   Clear
5:53 PM 30.9 °F 21.7 °F 19.0 °F 61% 30.23 in 10.0 mi SSW 11.5 mph - N/A   Overcast
6:53 PM 34.0 °F 25.0 °F 18.0 °F 52% 30.13 in 10.0 mi WSW 12.7 mph - N/A   Clear
7:53 PM 34.0 °F 24.2 °F 18.0 °F 52% 30.06 in 10.0 mi WSW 15.0 mph - N/A   Clear
8:53 PM 36.0 °F 24.4 °F 18.0 °F 48% 30.06 in 10.0 mi West 23.0 mph - N/A   Clear
9:53 PM 33.1 °F 22.6 °F 18.0 °F 54% 30.03 in 10.0 mi WSW 16.1 mph - N/A   Clear
10:53 PM 33.1 °F - 18.0 °F 54% 30.01 in 10.0 mi Calm Calm - N/A   Clear
11:53 PM 37.0 °F 27.4 °F 19.0 °F 48% 29.99 in 10.0 mi West 17.3 mph - N/A   Clear